CT1AKV-10 Estrada Real PT current weather conditions

sailwx.info

Wind from 039 at 0 knots gusting 2

Air temperature 13.3° C
Dewpoint 7.1° C

Last reported at 2016-Dec-07 19:45 UTC.
Time now 2016-Dec-07 20:19 UTC

Location: N 39°11' W 008°44'.
View on Google Maps.

See reports from other nearby stations

  
Tides and Currents Weather Stations Pressure Air Temp Water Temp Dewpoint Dewpoint Depression Visibility Wind Speed Wind Dir Waves Ship Positions
date/time (UTC)wind fromknots sea level pressurealtimeterstation pressurevisibilityair tempwater tempwave heightnotes
2016-Dec-07 19:45 039 0 gusting 2 13.3
2016-Dec-07 19:30 057 0 gusting 3 13.3
2016-Dec-07 19:15 051 0 gusting 3 13.3
2016-Dec-07 19:00 035 0 gusting 3 13.3
2016-Dec-07 18:45 042 0 gusting 2 13.3
2016-Dec-07 18:30 017 0 gusting 3 13.3
2016-Dec-07 18:15 012 0 gusting 1 13.3
2016-Dec-07 18:00 002 13.3
2016-Dec-07 17:45 13.3
2016-Dec-07 17:30 033 14.4
2016-Dec-07 17:15 043 0 gusting 2 14.4
2016-Dec-07 17:00 029 15.0
2016-Dec-07 16:45 005 15.6
2016-Dec-07 16:30 021 0 gusting 2 16.7
2016-Dec-07 16:15 028 0 gusting 2 16.7
2016-Dec-07 16:00 048 0 gusting 3 17.2
2016-Dec-07 15:45 073 17.2
2016-Dec-07 15:30 070 0 gusting 2 17.2
2016-Dec-07 15:15 068 0 gusting 3 17.8
2016-Dec-07 15:00 047 0 gusting 4 17.8
2016-Dec-07 14:45 046 1 gusting 4 17.8
2016-Dec-07 14:30 055 1 gusting 6 17.8
2016-Dec-07 14:15 043 1 gusting 4 18.3
2016-Dec-07 14:00 055 0 gusting 3 18.3
2016-Dec-07 13:45 060 1 gusting 3 18.3
2016-Dec-07 13:30 060 1 gusting 4 18.3
2016-Dec-07 13:15 051 1 gusting 5 17.8
2016-Dec-07 13:00 047 1 gusting 4 17.2
2016-Dec-07 12:45 053 1 gusting 3 17.2
2016-Dec-07 12:30 047 1 gusting 5 17.2
2016-Dec-07 12:15 036 1 gusting 4 17.2
2016-Dec-07 12:00 017 0 gusting 3 16.7
2016-Dec-07 11:45 044 1 gusting 5 16.7
2016-Dec-07 11:30 042 1 gusting 6 16.1
2016-Dec-07 11:15 058 1 gusting 4 15.0
2016-Dec-07 11:00 034 1 gusting 4 15.6
2016-Dec-07 10:45 013 1 gusting 5 15.6
2016-Dec-07 10:30 028 1 gusting 4 15.0
2016-Dec-07 10:15 054 1 gusting 5 15.0
2016-Dec-07 10:00 039 0 gusting 3 13.9
2016-Dec-07 09:45 047 0 gusting 3 12.2
2016-Dec-07 09:30 018 0 gusting 4 11.7
2016-Dec-07 09:15 020 1 gusting 3 11.7
2016-Dec-07 09:00 042 1 gusting 4 11.1
2016-Dec-07 08:45 041 0 gusting 3 11.1
2016-Dec-07 08:30 019 1 gusting 3 10.6
2016-Dec-07 08:15 015 1 gusting 4 10.6
2016-Dec-07 07:45 038 1 gusting 5 10.6
2016-Dec-07 07:30 045 1 gusting 4 10.6
2016-Dec-07 07:15 020 1 gusting 4 10.6
2016-Dec-07 07:00 037 1 gusting 4 10.6
2016-Dec-07 06:45 015 0 gusting 3 10.6
2016-Dec-07 06:30 029 1 gusting 3 10.6
2016-Dec-07 06:15 039 1 gusting 2 10.6
2016-Dec-07 06:00 020 1 gusting 3 10.6
2016-Dec-07 05:45 014 1 gusting 3 10.6
2016-Dec-07 05:30 024 0 gusting 3 10.6
2016-Dec-07 05:15 028 1 gusting 3 10.6
2016-Dec-07 05:00 023 0 gusting 3 10.6
2016-Dec-07 04:45 013 0 gusting 3 10.6
2016-Dec-07 04:30 025 10.0
2016-Dec-07 04:15 9.4
2016-Dec-07 04:00 10.0
2016-Dec-07 03:45 10.0
2016-Dec-07 03:30 10.0
2016-Dec-07 03:15 10.0
2016-Dec-07 02:45 333 11.1
2016-Dec-07 02:30 044 11.7
2016-Dec-07 02:15 048 0 gusting 3 11.7
2016-Dec-07 02:00 053 0 gusting 3 11.7
2016-Dec-07 01:45 062 0 gusting 3 11.7
2016-Dec-07 01:30 071 1 gusting 3 11.7
2016-Dec-07 01:15 052 0 gusting 3 11.7
2016-Dec-07 01:00 048 0 gusting 2 11.7
2016-Dec-07 00:45 11.7
2016-Dec-07 00:30 11.7
2016-Dec-07 00:15 057 11.7
2016-Dec-07 00:00 11.7
2016-Dec-06 23:45 059 11.7
2016-Dec-06 23:30 060 12.2
2016-Dec-06 23:15 056 12.2
2016-Dec-06 23:00 078 12.8
2016-Dec-06 22:45 034 0 gusting 3 12.8
2016-Dec-06 22:30 057 12.8
2016-Dec-06 22:15 039 12.8
2016-Dec-06 22:00 069 12.8
2016-Dec-06 21:45 12.8
2016-Dec-06 21:30 087 12.8
2016-Dec-06 21:15 12.8
2016-Dec-06 21:00 12.8
2016-Dec-06 20:45 12.8
2016-Dec-06 20:30 13.3
2016-Dec-06 20:15 13.3
2016-Dec-06 20:00 13.3
2016-Dec-06 19:45 13.9
2016-Dec-06 19:30 13.9
2016-Dec-06 19:15 13.9
2016-Dec-06 19:00 14.4
2016-Dec-06 18:45 14.4
2016-Dec-06 18:30 14.4
2016-Dec-06 18:15 14.4
2016-Dec-06 18:00 15.0
2016-Dec-06 17:45 15.6
2016-Dec-06 17:30 15.6
2016-Dec-06 17:15 16.1
2016-Dec-06 17:00 16.7
2016-Dec-06 16:45 17.2
2016-Dec-06 16:30 18.3
2016-Dec-06 16:15 246 18.9
2016-Dec-06 16:00 198 18.9
2016-Dec-06 15:45 135 19.4
2016-Dec-06 15:30 151 19.4
2016-Dec-06 15:15 168 20.0
2016-Dec-06 15:00 166 0 gusting 3 20.0
2016-Dec-06 14:45 104 0 gusting 3 20.6
2016-Dec-06 14:30 086 0 gusting 3 22.8
2016-Dec-06 14:15 121 0 gusting 4 25.0
2016-Dec-06 14:00 114 0 gusting 3 24.4
2016-Dec-06 13:45 082 0 gusting 3 24.4
2016-Dec-06 13:30 077 1 gusting 5 24.4
2016-Dec-06 13:15 099 0 gusting 5 23.9
2016-Dec-06 13:00 085 1 gusting 5 23.3
2016-Dec-06 12:45 121 1 gusting 4 23.9
2016-Dec-06 12:30 069 1 gusting 6 22.8
2016-Dec-06 12:15 050 1 gusting 5 22.2
2016-Dec-06 12:00 049 1 gusting 5 21.1
2016-Dec-06 11:45 054 1 gusting 6 20.0
2016-Dec-06 11:30 052 1 gusting 6 19.4
2016-Dec-06 11:15 048 1 gusting 6 18.9
2016-Dec-06 11:00 028 0 gusting 3 19.4
2016-Dec-06 10:45 044 1 gusting 5 17.8
2016-Dec-06 10:30 049 1 gusting 6 16.7
2016-Dec-06 10:15 047 1 gusting 6 16.1
2016-Dec-06 10:00 037 2 gusting 6 15.6
2016-Dec-06 09:45 063 1 gusting 5 13.9
2016-Dec-06 09:30 037 2 gusting 6 12.8
2016-Dec-06 09:15 042 2 gusting 4 12.2
2016-Dec-06 09:00 033 1 gusting 4 11.7
2016-Dec-06 08:45 052 1 gusting 3 11.7
2016-Dec-06 08:30 043 1 gusting 4 11.1
2016-Dec-06 08:15 016 1 gusting 3 10.6
2016-Dec-06 08:00 006 0 gusting 3 10.0
2016-Dec-06 07:45 014 0 gusting 3 10.0
2016-Dec-06 07:30 009 0 gusting 1 10.0
2016-Dec-06 07:15 339 10.0
2016-Dec-06 07:00 010 0 gusting 2 10.6
2016-Dec-06 06:45 346 10.6
2016-Dec-06 06:30 016 10.6
2016-Dec-06 06:15 050 0 gusting 3 11.1
2016-Dec-06 06:00 032 0 gusting 3 11.1
2016-Dec-06 05:45 016 1 gusting 3 11.1
2016-Dec-06 05:30 016 1 gusting 3 11.1
2016-Dec-06 05:15 002 0 gusting 2 10.6
2016-Dec-06 05:00 013 0 gusting 3 10.6
2016-Dec-06 04:45 004 0 gusting 2 10.6
2016-Dec-06 04:30 006 0 gusting 1 10.6
2016-Dec-06 04:15 358 0 gusting 2 10.6
2016-Dec-06 04:00 318 10.6
2016-Dec-06 03:45 341 0 gusting 2 10.6
2016-Dec-06 03:30 10.0
2016-Dec-06 03:15 334 10.6
2016-Dec-06 03:00 342 10.6
2016-Dec-06 02:45 358 0 gusting 2 11.1
2016-Dec-06 02:30 005 0 gusting 2 11.7
2016-Dec-06 02:15 035 0 gusting 3 11.7
2016-Dec-06 02:00 015 0 gusting 2 11.7
2016-Dec-06 01:45 041 0 gusting 3 11.7
2016-Dec-06 01:30 034 0 gusting 3 11.7
2016-Dec-06 01:15 010 0 gusting 3 11.7
2016-Dec-06 01:00 015 0 gusting 3 11.7
2016-Dec-06 00:45 015 0 gusting 3 12.2
2016-Dec-06 00:30 018 0 gusting 3 12.2
2016-Dec-06 00:15 016 1 gusting 3 12.2
2016-Dec-06 00:00 013 1 gusting 3 12.8
2016-Dec-05 23:45 353 0 gusting 2 12.8
2016-Dec-05 23:30 019 0 gusting 2 13.3
2016-Dec-05 23:15 031 1 gusting 4 13.3
2016-Dec-05 23:00 031 0 gusting 2 13.3
2016-Dec-05 22:45 049 0 gusting 2 13.3
2016-Dec-05 22:30 046 0 gusting 2 13.3
2016-Dec-05 22:15 023 0 gusting 3 13.9
2016-Dec-05 22:00 026 1 gusting 5 13.9
2016-Dec-05 21:45 033 0 gusting 3 13.3
2016-Dec-05 21:30 038 0 gusting 3 13.3
2016-Dec-05 21:15 006 13.3
2016-Dec-05 21:00 350 13.3
2016-Dec-05 20:45 350 13.3
2016-Dec-05 20:30 001 13.9
2016-Dec-05 20:15 010 13.9
2016-Dec-05 20:00 001 13.9